sat.trackr.live / text

‹ back to catalog

METEOSAT-12 (MTG-I1)

NORAD 54743 · 2022-170C

PAYLOAD ACTIVE UNKNOWN

§ Identity

Operator
Country
EUME
Launch date
2022-12-13
Launch site
FRGUI
Launch vehicle
Mass (kg)
RCS (m²)

Purposes: comms, earth_obs

External: N2YO · Heavens-Above · Gunter

§ Orbital elements

Epoch: 2026-05-25T03:44:32.269056Z

Period
1,436.06 min
Inclination
0.7582°
Eccentricity
0.0000778
Mean motion
1.00274682 rev/d
Perigee alt
35,782.5 km
Apogee alt
35,789.1 km
Semi-major
42,163.9 km
B*
0.0000e+0
RAAN
26.9701°
Arg perigee
1.8142°
Mean anomaly
269.8051°
Rev number
1,274

§ Raw data

METEOSAT-12 (MTG-I1)1 54743U 22170C   26145.15592904 -.00000009  00000+0  00000+0 0  99962 54743   0.7582  26.9701 0000778   1.8142 269.8051  1.00274682 12745

JSON: /api/v1/satellites/54743 · /tle

For live sub-satellite position, see the globe view (requires WebGL).

§ Visibility from observer

Set your observer location to see the next 7 days of passes ≥ 10°. The values pass through the URL so the page stays shareable.

No JS? Fill the form by hand. The geolocation button needs JavaScript.